Weather History for Nogales, AZ

Change the Weather History Date:

Saturday, January 12, 2013

  Actual Average (KTUS) Record (KTUS)
Temperature  
Mean Temperature 29 °F 52 °F  
Max Temperature 41 °F 65 °F 82 °F (1923)
Min Temperature 17 °F 40 °F 18 °F (1964)
Degree Days  
Heating Degree Days 36 13  
Month to date heating degree days 156  
Since 1 July heating degree days 767  
Cooling Degree Days 0 0  
Month to date cooling degree days 0  
Year to date cooling degree days 0  
Moisture  
Dew Point 9 °F    
Average Humidity 49    
Maximum Humidity 71    
Minimum Humidity 21    
Precipitation  
Precipitation 0.00 in 0.03 in 0.71 in (1981)
Month to date precipitation 0.36  
Year to date precipitation 0.36  
Sea Level Pressure  
Sea Level Pressure 30.01 in    
Wind  
Wind Speed 3 mph (NNE)    
Max Wind Speed 14 mph    
Max Gust Speed 20 mph    
Visibility 10 miles    
Events      
T = Trace of Precipitation, MM = Missing Value Source: NWS Daily Summary

Daily Weather History Graph

Daily Weather History Graph

Search for Another Location

Airport:

Trip Planner

Search our weather history database for the weather conditions in past years. The results will help you decide how hot, cold, wet, or windy it might be!

Date:

Astronomy

Jan. 12, 2013 Rise Set
Actual Time 7:23 AM MST 5:40 PM MST
Civil Twilight 6:56 AM MST 6:07 PM MST
Nautical Twilight 6:27 AM MST 6:36 PM MST
Astronomical Twilight 5:57 AM MST 7:06 PM MST
Moon 7:51 AM MST (1/12) 7:05 PM MST (1/12)
Length of Visible Light 11h 10m
Length of Day
10h 17m
New Moon, 1% of the Moon is Illuminated
Jan 12
New Moon
Jan 18
First Quarter
Jan 26
Full
Feb 3
Last Quarter
Feb 10
New

Hourly Weather History & Observations

Time (MST) Temp. Windchill Dew Point Humidity Pressure Visibility Wind Dir Wind Speed Gust Speed Precip Events Conditions
12:54 AM 24.1 °F - 12.0 °F 60% 29.94 in 10.0 mi Calm Calm - N/A   Clear
1:54 AM 21.9 °F 17.2 °F 12.0 °F 66% 29.94 in 10.0 mi East 3.5 mph - N/A   Clear
2:54 AM 21.9 °F 15.7 °F 10.9 °F 63% 29.94 in 10.0 mi ENE 4.6 mph - N/A   Clear
3:54 AM 21.0 °F - 10.9 °F 65% 29.94 in 10.0 mi Calm Calm - N/A   Clear
4:54 AM 19.0 °F - 10.0 °F 68% 29.94 in 10.0 mi Calm Calm - N/A   Clear
5:54 AM 18.0 °F 11.1 °F 9.0 °F 68% 29.96 in 10.0 mi NNE 4.6 mph - N/A   Clear
6:54 AM 17.1 °F - 9.0 °F 71% 29.99 in 10.0 mi Calm Calm - N/A   Clear
7:54 AM 18.0 °F 12.7 °F 10.0 °F 71% 30.03 in 10.0 mi NNE 3.5 mph - N/A   Clear
8:54 AM 23.0 °F - 12.9 °F 65% 30.05 in 10.0 mi Calm Calm - N/A   Clear
9:54 AM 30.0 °F - 16.0 °F 56% 30.05 in 10.0 mi Calm Calm - N/A   Partly Cloudy
11:54 AM 37.9 °F 30.0 °F 7.0 °F 28% 30.02 in 10.0 mi SW 12.7 mph 18.4 mph N/A   Overcast
12:54 PM 37.9 °F 33.5 °F 7.0 °F 28% 30.00 in 10.0 mi North 5.8 mph - N/A   Overcast
1:54 PM 37.9 °F 33.5 °F 10.9 °F 33% 30.01 in 10.0 mi NW 5.8 mph - N/A   Mostly Cloudy
2:54 PM 41.0 °F - 9.0 °F 27% 29.99 in 10.0 mi Calm Calm - N/A   Overcast
3:54 PM 41.0 °F 33.5 °F 3.9 °F 21% 30.00 in 10.0 mi WNW 13.8 mph 19.6 mph N/A   Mostly Cloudy
4:54 PM 39.0 °F 34.0 °F 3.0 °F 22% 30.01 in 10.0 mi NW 6.9 mph - N/A   Clear
5:54 PM 35.1 °F 32.2 °F 3.9 °F 27% 30.02 in 10.0 mi NW 3.5 mph - N/A   Clear
6:54 PM 28.9 °F 22.8 °F 7.0 °F 40% 30.06 in 10.0 mi East 5.8 mph - N/A   Clear
7:54 PM 26.1 °F 20.5 °F 7.0 °F 44% 30.08 in 10.0 mi East 4.6 mph - N/A   Clear
8:54 PM 26.1 °F 20.5 °F 7.0 °F 44% 30.08 in 10.0 mi East 4.6 mph - N/A   Clear
9:54 PM 25.0 °F 17.1 °F 7.0 °F 46% 30.06 in 10.0 mi ENE 6.9 mph - N/A   Clear
10:54 PM 23.0 °F - 7.0 °F 50% 30.06 in 10.0 mi Calm Calm - N/A   Clear
11:54 PM 19.9 °F 14.9 °F 8.1 °F 60% 30.08 in 10.0 mi NNE 3.5 mph - N/A   Clear